Dublin, Ireland

8:17 AM IST on June 23, 2017 (GMT +0100)
Dublin International

Weather History for EIDW - June, 2013

Change the Weather History Date:

Tuesday, June 25, 2013

  Actual Average Record
Temperature  
Mean Temperature 55 °F -  
Max Temperature 64 °F 66 °F 69 °F (1999)
Min Temperature 46 °F 52 °F 42 °F (2004)
Degree Days  
Heating Degree Days 10    
Growing Degree Days 5 (Base 50)    
Moisture  
Dew Point 49 °F    
Average Humidity 73    
Maximum Humidity 88    
Minimum Humidity 49    
Precipitation  
Precipitation 0.00 in 0.07 in - ()
Sea Level Pressure  
Sea Level Pressure 30.36 in    
Wind  
Wind Speed 3 mph ()    
Max Wind Speed 9 mph    
Max Gust Speed -    
Visibility 6.2 miles    
Events      
Averages and records for this station are not official NWS values.
T = Trace of Precipitation, MM = Missing Value Source: Averaged Metar Reports

Daily Weather History Graph

Daily Weather History Graph

Search for Another Location

Airport or City:

Trip Planner

Search our weather history database for the weather conditions in past years. The results will help you decide how hot, cold, wet, or windy it might be!

Date:

Astronomy

Jun. 25, 2013 Rise Set
Actual Time 4:57 AM IST 9:57 PM IST
Civil Twilight 4:04 AM IST 10:50 PM IST
Nautical Twilight 2:30 AM IST 12:24 AM IST
Astronomical Twilight Sun does not set Sun does not set
Moon 11:03 PM IST (6/25) 7:44 AM IST (6/25)
Length of Visible Light 18h 45m
Length of Day
17h 00m
Waning Gibbous, 94% of the Moon is Illuminated
Jun 25
Waning Gibbous
Jun 30
Last Quarter
Jul 8
New
Jul 16
First Quarter
Jul 22
Full

Hourly Weather History & Observations

Time (IST) Temp. Dew Point Humidity Pressure Visibility Wind Dir Wind Speed Gust Speed Precip Events Conditions
12:00 AM 50.0 °F 46.4 °F 87% 30.30 in 6.2 mi WSW 2.3 mph - N/A   Mostly Cloudy
12:30 AM 51.8 °F 46.4 °F 82% 30.30 in 6.2 mi Calm Calm - N/A   Mostly Cloudy
1:00 AM 51 °F 47 °F 80% 30.32 in 31 mi Calm Calm - -   Mostly Cloudy
1:00 AM 50.0 °F 46.4 °F 87% 30.30 in 6.2 mi Calm Calm - N/A   Mostly Cloudy
1:30 AM 51.8 °F 48.2 °F 88% 30.30 in 6.2 mi WSW 4.6 mph - N/A   Mostly Cloudy
2:00 AM 53.6 °F 48.2 °F 82% 30.30 in 6.2 mi WSW 4.6 mph - N/A   Mostly Cloudy
2:30 AM 53.6 °F 48.2 °F 82% 30.30 in 6.2 mi SW 3.5 mph - N/A   Mostly Cloudy
3:00 AM 51.8 °F 48.2 °F 88% 30.30 in 6.2 mi Calm Calm - N/A   Mostly Cloudy
3:30 AM 51.8 °F 48.2 °F 88% 30.30 in 6.2 mi SW 3.5 mph - N/A   Mostly Cloudy
4:00 AM 51.8 °F 48.2 °F 88% 30.30 in 6.2 mi WSW 4.6 mph - N/A   Mostly Cloudy
4:30 AM 50.0 °F 46.4 °F 87% 30.30 in 6.2 mi SW 1.2 mph - N/A   Partly Cloudy
5:00 AM 50.0 °F 46.4 °F 87% 30.30 in 6.2 mi Calm Calm - N/A   Partly Cloudy
5:30 AM 50.0 °F 46.4 °F 87% 30.33 in 6.2 mi Calm Calm - N/A   Partly Cloudy
6:00 AM 48.2 °F 44.6 °F 87% 30.33 in 6.2 mi Variable 1.2 mph - N/A   Partly Cloudy
6:30 AM 50.0 °F 46.4 °F 87% 30.33 in 6.2 mi Variable 1.2 mph - N/A   Partly Cloudy
7:00 AM 52 °F 49 °F 85% 30.35 in 31 mi Calm Calm - -   Scattered Clouds
7:00 AM 51.8 °F 48.2 °F 88% 30.33 in 6.2 mi North 1.2 mph - N/A   Partly Cloudy
7:30 AM 55.4 °F 48.2 °F 77% 30.33 in 6.2 mi WSW 4.6 mph - N/A   Partly Cloudy
8:00 AM 55.4 °F 50.0 °F 82% 30.36 in 6.2 mi WSW 6.9 mph - N/A   Mostly Cloudy
8:30 AM 57.2 °F 50.0 °F 77% 30.36 in 6.2 mi West 4.6 mph - N/A   Mostly Cloudy
9:00 AM 57.2 °F 50.0 °F 77% 30.36 in 6.2 mi WSW 5.8 mph - N/A   Mostly Cloudy
9:30 AM 57.2 °F 50.0 °F 77% 30.36 in 6.2 mi WSW 4.6 mph - N/A   Mostly Cloudy
10:00 AM 59.0 °F 50.0 °F 72% 30.36 in 6.2 mi Variable 2.3 mph - N/A   Mostly Cloudy
10:30 AM 60.8 °F 50.0 °F 68% 30.36 in 6.2 mi Variable 3.5 mph - N/A   Mostly Cloudy
11:00 AM 60.8 °F 50.0 °F 68% 30.36 in 6.2 mi Variable 3.5 mph - N/A   Mostly Cloudy
11:30 AM 60.8 °F 48.2 °F 63% 30.36 in 6.2 mi SE 6.9 mph - N/A   Mostly Cloudy
12:00 PM 60.8 °F 48.2 °F 63% 30.36 in 6.2 mi SSE 9.2 mph - N/A   Mostly Cloudy
12:30 PM 64.4 °F 50.0 °F 59% 30.36 in 6.2 mi SSE 9.2 mph - N/A   Mostly Cloudy
1:00 PM 62 °F 48 °F 49% 30.39 in 25 mi SSE 6.7 mph - -   Mostly Cloudy
1:00 PM 62.6 °F 48.2 °F 59% 30.36 in 6.2 mi SSE 8.1 mph - N/A   Mostly Cloudy
1:30 PM 62.6 °F 48.2 °F 59% 30.39 in 6.2 mi SSE 6.9 mph - N/A   Mostly Cloudy
2:00 PM 62.6 °F 48.2 °F 59% 30.39 in 6.2 mi SE 6.9 mph - N/A   Mostly Cloudy
2:30 PM 60.8 °F 48.2 °F 63% 30.39 in 6.2 mi SE 8.1 mph - N/A   Mostly Cloudy
3:00 PM 60.8 °F 48.2 °F 63% 30.39 in 6.2 mi SE 8.1 mph - N/A   Mostly Cloudy
3:30 PM 62.6 °F 50.0 °F 63% 30.39 in 6.2 mi SE 9.2 mph - N/A   Mostly Cloudy
4:00 PM 62.6 °F 48.2 °F 59% 30.39 in 6.2 mi East 4.6 mph - N/A   Mostly Cloudy
4:30 PM 64.4 °F 48.2 °F 56% 30.39 in 6.2 mi Variable 2.3 mph - N/A   Mostly Cloudy
5:00 PM 62.6 °F 48.2 °F 59% 30.39 in 6.2 mi Variable 1.2 mph - N/A   Mostly Cloudy
5:30 PM 64.4 °F 50.0 °F 59% 30.39 in 6.2 mi Variable 3.5 mph - N/A   Mostly Cloudy
6:00 PM 64.4 °F 50.0 °F 59% 30.39 in 6.2 mi WNW 5.8 mph - N/A   Mostly Cloudy
6:30 PM 64.4 °F 50.0 °F 59% 30.39 in 6.2 mi North 1.2 mph - N/A   Mostly Cloudy
7:00 PM 64 °F 49 °F 49% 30.41 in 25 mi ESE 6.7 mph - -   Mostly Cloudy
7:00 PM 64.4 °F 50.0 °F 59% 30.39 in 6.2 mi ESE 5.8 mph - N/A   Mostly Cloudy
7:30 PM 64.4 °F 50.0 °F 59% 30.39 in 6.2 mi ESE 5.8 mph - N/A   Mostly Cloudy
8:00 PM 62.6 °F 51.8 °F 68% 30.39 in 6.2 mi SE 4.6 mph - N/A   Mostly Cloudy
8:30 PM 62.6 °F 51.8 °F 68% 30.39 in 6.2 mi SSE 3.5 mph - N/A   Mostly Cloudy
9:00 PM 60.8 °F 50.0 °F 68% 30.39 in 6.2 mi South 4.6 mph - N/A   Mostly Cloudy
9:30 PM 60.8 °F 51.8 °F 72% 30.39 in 6.2 mi South 3.5 mph - N/A   Mostly Cloudy
10:00 PM 59.0 °F 51.8 °F 77% 30.42 in 6.2 mi North 1.2 mph - N/A   Mostly Cloudy
10:30 PM 59.0 °F 53.6 °F 82% 30.42 in 6.2 mi West 6.9 mph - N/A   Mostly Cloudy
11:00 PM 59.0 °F 53.6 °F 82% 30.42 in 6.2 mi West 6.9 mph - N/A   Mostly Cloudy
11:30 PM 57.2 °F 53.6 °F 88% 30.42 in 6.2 mi West 8.1 mph - N/A   Mostly Cloudy